Weather History for Kimball, NE

Change the Weather History Date:

Monday, February 18, 2013

  Actual Average (KSNY) Record (KSNY)
Temperature  
Mean Temperature 26 °F 32 °F  
Max Temperature 37 °F 46 °F 70 °F (2004)
Min Temperature 15 °F 19 °F -13 °F (1993)
Degree Days  
Heating Degree Days 39 33  
Month to date heating degree days 615  
Since 1 July heating degree days 4272  
Cooling Degree Days 0 0  
Month to date cooling degree days 0  
Year to date cooling degree days 0  
Moisture  
Dew Point 19 °F    
Average Humidity 73    
Maximum Humidity 92    
Minimum Humidity 41    
Precipitation  
Precipitation 0.00 in 0.01 in 0.41 in (2010)
Month to date precipitation 0.16  
Year to date precipitation 0.36  
Sea Level Pressure  
Sea Level Pressure 29.91 in    
Wind  
Wind Speed 17 mph (NW)    
Max Wind Speed 24 mph    
Max Gust Speed 33 mph    
Visibility 10 miles    
Events Snow    
T = Trace of Precipitation, MM = Missing Value Source: NWS Daily Summary

Daily Weather History Graph

Daily Weather History Graph

Search for Another Location

Airport:

Trip Planner

Search our weather history database for the weather conditions in past years. The results will help you decide how hot, cold, wet, or windy it might be!

Date:

Astronomy

Feb. 18, 2013 Rise Set
Actual Time 7:44 AM CST 6:32 PM CST
Civil Twilight 7:16 AM CST 7:01 PM CST
Nautical Twilight 6:44 AM CST 7:33 PM CST
Astronomical Twilight 6:12 AM CST 8:05 PM CST
Moon 12:18 PM CST (2/18) 2:28 AM CST (2/18)
Length of Visible Light 11h 44m
Length of Day
10h 48m
First Quarter, 58% of the Moon is Illuminated
Feb 18
First Quarter
Feb 25
Full
Mar 4
Last Quarter
Mar 11
New
Mar 19
First Quarter

Hourly Weather History & Observations

Time (CST) Temp. Windchill Dew Point Humidity Pressure Visibility Wind Dir Wind Speed Gust Speed Precip Events Conditions
12:15 AM 29.8 °F 17.0 °F 21.2 °F 70% 29.73 in 10.0 mi NNW 20.7 mph 26.5 mph N/A   Clear
12:55 AM 29.3 °F 16.6 °F 20.3 °F 69% 29.74 in 10.0 mi NNW 19.6 mph 26.5 mph N/A   Clear
1:15 AM 28.4 °F 16.6 °F 20.5 °F 72% 29.75 in 10.0 mi NNW 16.1 mph 20.7 mph N/A   Mostly Cloudy
1:35 AM 28.4 °F 15.4 °F 20.7 °F 73% 29.76 in 10.0 mi NNW 19.6 mph 24.2 mph N/A   Overcast
1:55 AM 28.4 °F 14.7 °F 20.3 °F 72% 29.76 in 10.0 mi NNW 21.9 mph 29.9 mph N/A   Overcast
2:15 AM 27.5 °F 13.2 °F 20.3 °F 74% 29.76 in 10.0 mi NNW 23.0 mph 32.2 mph N/A   Mostly Cloudy
2:35 AM 26.6 °F 12.7 °F 20.3 °F 77% 29.77 in 10.0 mi NNW 20.7 mph 26.5 mph N/A   Scattered Clouds
2:55 AM 25.9 °F 12.1 °F 20.8 °F 81% 29.78 in 10.0 mi NNW 19.6 mph 26.5 mph N/A   Clear
3:15 AM 26.2 °F 12.6 °F 20.7 °F 79% 29.78 in 10.0 mi NNW 19.6 mph 25.3 mph N/A   Clear
3:35 AM 26.4 °F 12.5 °F 20.7 °F 79% 29.79 in 10.0 mi NNW 20.7 mph 29.9 mph N/A   Clear
3:55 AM 26.1 °F 12.3 °F 20.8 °F 81% 29.79 in 10.0 mi NNW 19.6 mph 24.2 mph N/A   Clear
4:15 AM 26.4 °F 12.1 °F 20.8 °F 79% 29.79 in 10.0 mi NNW 21.9 mph 28.8 mph N/A   Scattered Clouds
4:35 AM 27.5 °F 12.9 °F 20.3 °F 74% 29.79 in 10.0 mi NNW 24.2 mph 33.4 mph N/A   Overcast
4:55 AM 27.3 °F 13.0 °F 20.3 °F 75% 29.79 in 10.0 mi NNW 23.0 mph 29.9 mph N/A   Overcast
5:15 AM 27.5 °F 13.9 °F 20.1 °F 74% 29.81 in 10.0 mi NNW 20.7 mph 25.3 mph N/A   Overcast
5:35 AM 26.4 °F 13.2 °F 19.4 °F 75% 29.81 in 10.0 mi NW 18.4 mph 23.0 mph N/A   Scattered Clouds
5:55 AM 25.9 °F 14.3 °F 19.4 °F 76% 29.83 in 10.0 mi NW 13.8 mph 19.6 mph N/A   Clear
6:15 AM 24.6 °F 13.8 °F 19.0 °F 79% 29.83 in 10.0 mi NW 11.5 mph - N/A   Clear
6:35 AM 24.6 °F 13.2 °F 19.2 °F 80% 29.84 in 10.0 mi NW 12.7 mph - N/A   Clear
6:55 AM 24.6 °F 11.7 °F 19.4 °F 81% 29.85 in 10.0 mi WNW 16.1 mph - N/A   Clear
7:15 AM 24.8 °F 14.0 °F 19.4 °F 80% 29.86 in 10.0 mi NW 11.5 mph - N/A   Scattered Clouds
7:35 AM 24.8 °F 14.0 °F 19.2 °F 79% 29.87 in 10.0 mi NW 11.5 mph 17.3 mph N/A   Scattered Clouds
7:55 AM 25.7 °F 14.0 °F 18.1 °F 73% 29.87 in 10.0 mi NW 13.8 mph 19.6 mph N/A   Scattered Clouds
8:15 AM 26.2 °F 14.2 °F 18.5 °F 73% 29.88 in 10.0 mi NW 15.0 mph 18.4 mph N/A   Clear
8:35 AM 27.1 °F 15.4 °F 18.5 °F 70% 29.89 in 10.0 mi NNW 15.0 mph 21.9 mph N/A   Clear
8:55 AM 28.4 °F 16.2 °F 18.9 °F 67% 29.90 in 10.0 mi NNW 17.3 mph 21.9 mph N/A   Clear
9:15 AM 29.8 °F 18.0 °F 19.4 °F 65% 29.91 in 10.0 mi NNW 17.3 mph 24.2 mph N/A   Clear
9:35 AM 30.7 °F 18.5 °F 18.7 °F 61% 29.92 in 10.0 mi NW 19.6 mph 27.6 mph N/A   Clear
9:55 AM 31.1 °F 18.9 °F 19.0 °F 61% 29.93 in 10.0 mi NNW 19.6 mph 25.3 mph N/A   Clear
10:35 AM 32.4 °F 20.9 °F 18.3 °F 56% 29.93 in 10.0 mi NNW 18.4 mph 26.5 mph N/A   Scattered Clouds
10:55 AM 32.7 °F 21.4 °F 16.7 °F 52% 29.94 in 10.0 mi NNW 18.4 mph 26.5 mph N/A   Scattered Clouds
11:15 AM 33.3 °F 21.2 °F 17.1 °F 51% 29.94 in 10.0 mi NW 21.9 mph 32.2 mph N/A   Scattered Clouds
11:35 AM 33.8 °F 22.2 °F 16.7 °F 50% 29.94 in 10.0 mi NW 20.7 mph 27.6 mph N/A   Mostly Cloudy
11:55 AM 34.9 °F 23.3 °F 16.9 °F 48% 29.94 in 10.0 mi NW 21.9 mph 29.9 mph N/A   Scattered Clouds
12:15 PM 34.3 °F 22.0 °F 16.9 °F 49% 29.94 in 10.0 mi NNW 24.2 mph 33.4 mph N/A   Mostly Cloudy
12:35 PM 35.8 °F 25.7 °F 16.7 °F 46% 29.94 in 10.0 mi NW 17.3 mph 28.8 mph N/A   Mostly Cloudy
12:55 PM 35.6 °F 24.8 °F 16.3 °F 46% 29.94 in 10.0 mi NNW 19.6 mph 28.8 mph N/A   Mostly Cloudy
1:15 PM 34.7 °F 23.7 °F 14.7 °F 44% 29.94 in 10.0 mi NW 19.6 mph 27.6 mph N/A   Overcast
1:35 PM 37.4 °F 27.5 °F 16.7 °F 43% 29.93 in 10.0 mi NW 18.4 mph 28.8 mph N/A   Mostly Cloudy
1:55 PM 36.1 °F 26.5 °F 14.2 °F 41% 29.92 in 10.0 mi NW 16.1 mph 25.3 mph N/A   Scattered Clouds
2:15 PM 34.2 °F 23.3 °F 18.0 °F 52% 29.92 in 10.0 mi NNW 18.4 mph 26.5 mph N/A   Overcast
2:35 PM 34.5 °F 23.1 °F 22.1 °F 61% 29.94 in 7.0 mi NNW 20.7 mph 26.5 mph N/A Snow Light Snow
2:55 PM 31.1 °F 19.7 °F 25.5 °F 80% 29.93 in 2.5 mi NNW 17.3 mph 21.9 mph N/A Snow Light Snow
3:15 PM 33.8 °F 23.5 °F 24.3 °F 68% 29.93 in 10.0 mi NNW 16.1 mph 23.0 mph N/A   Scattered Clouds
3:35 PM 32.4 °F 21.3 °F 26.2 °F 78% 29.94 in 4.0 mi North 17.3 mph 23.0 mph N/A Snow Light Snow
3:55 PM 31.3 °F 20.3 °F 24.8 °F 77% 29.95 in 10.0 mi NNW 16.1 mph 21.9 mph N/A   Overcast
4:15 PM 31.8 °F 19.6 °F 24.1 °F 73% 29.96 in 10.0 mi NNW 20.7 mph 26.5 mph N/A   Overcast
4:35 PM 30.4 °F 18.7 °F 23.4 °F 75% 29.97 in 10.0 mi NNW 17.3 mph 23.0 mph N/A   Overcast
4:55 PM 31.1 °F 19.7 °F 23.2 °F 72% 29.97 in 10.0 mi NNW 17.3 mph 25.3 mph N/A   Scattered Clouds
5:15 PM 30.2 °F 19.3 °F 22.1 °F 72% 29.97 in 10.0 mi NW 15.0 mph 21.9 mph N/A   Scattered Clouds
5:35 PM 31.6 °F 20.0 °F 21.4 °F 66% 29.97 in 10.0 mi NNW 18.4 mph 24.2 mph N/A   Scattered Clouds
5:55 PM 29.7 °F 17.4 °F 20.3 °F 68% 29.98 in 10.0 mi NW 18.4 mph 25.3 mph N/A   Clear
6:15 PM 28.4 °F 17.5 °F 20.8 °F 73% 29.98 in 10.0 mi NNW 13.8 mph 23.0 mph N/A   Clear
6:35 PM 27.3 °F 17.7 °F 21.2 °F 78% 29.98 in 10.0 mi NW 10.4 mph - N/A   Scattered Clouds
6:55 PM 26.2 °F 17.1 °F 20.8 °F 80% 29.99 in 10.0 mi NW 9.2 mph - N/A   Clear
7:15 PM 23.9 °F 14.2 °F 20.3 °F 86% 29.99 in 10.0 mi NW 9.2 mph - N/A   Clear
7:35 PM 24.1 °F 15.2 °F 20.1 °F 85% 30.00 in 10.0 mi WNW 8.1 mph - N/A   Clear
7:55 PM 21.9 °F 10.4 °F 19.0 °F 89% 30.01 in 10.0 mi WNW 11.5 mph - N/A   Clear
8:15 PM 22.3 °F 11.5 °F 19.0 °F 87% 30.01 in 10.0 mi WNW 10.4 mph - N/A   Clear
8:35 PM 20.5 °F 10.0 °F 18.0 °F 90% 30.02 in 10.0 mi WNW 9.2 mph - N/A   Clear
8:55 PM 19.8 °F 9.1 °F 17.1 °F 89% 30.02 in 10.0 mi WNW 9.2 mph - N/A   Clear
9:15 PM 19.4 °F 9.5 °F 16.7 °F 89% 30.02 in 10.0 mi WNW 8.1 mph - N/A   Clear
9:35 PM 21.4 °F 12.8 °F 18.5 °F 89% 30.03 in 10.0 mi NW 6.9 mph - N/A   Scattered Clouds
9:55 PM 22.3 °F 14.9 °F 18.9 °F 87% 30.03 in 10.0 mi NW 5.8 mph - N/A   Scattered Clouds
10:15 PM 20.8 °F 9.7 °F 18.1 °F 89% 30.02 in 10.0 mi North 10.4 mph - N/A   Scattered Clouds
10:35 PM 20.5 °F 10.0 °F 18.0 °F 90% 30.04 in 10.0 mi SW 9.2 mph - N/A   Clear
10:55 PM 18.9 °F 12.1 °F 16.3 °F 90% 30.04 in 10.0 mi WSW 4.6 mph - N/A   Clear
11:15 PM 18.0 °F 12.7 °F 16.0 °F 92% 30.04 in 10.0 mi NW 3.5 mph - N/A   Clear
11:35 PM 15.8 °F 8.6 °F 13.5 °F 90% 30.03 in 10.0 mi NW 4.6 mph - N/A   Mostly Cloudy
11:55 PM 18.0 °F 8.7 °F 16.0 °F 92% 30.03 in 10.0 mi NNW 6.9 mph - N/A   Scattered Clouds